Location: La Trinit�
(48.1620°N, 3.4512°W)
Time: 17:14:58
(UTC+00:00)

Meteor 1-18 Rocket - Pass Details

Date: 08 May 2021
Orbit: 837 x 909 km, 81.2° (Epoch: 21 June)

Event Time Altitude Azimuth Distance (km) Brightness Sun altitude
Exits shadow 23:32:41 57° 148° (SSE) 1,005 4.2 -23.9°
Maximum altitude 23:33:39 68° 97° (E) 921 4.2 -24.0°
Drops below altitude 10° 23:39:13 10° 16° (NNE) 2,481 7.5 -24.1°
Sets 23:41:38 0° 14° (NNE) 3,413 8.5 -24.2°
